Hauptseite
METAR-TAF:

METAR-TAF

Flughäfen :

Meppen, Deutschland

Fliegerhorst Meppen

Breite: 52-43-24N, Länge: 007-19-35E, Höhe: 21 m

Beobachtung

Neuester Wetterbericht von vor 46 Minuten, um 10:20 UTC
Wind 7 kt aus Süd/Südwest
Temperatur 19°C
Luftfeuchtigkeit 64%
Luftdruck 1009 hPa
Sichtweite 10 km oder mehr

METAR: ETWM 281020Z AUTO 20007KT 9999 // ////// 19/12 Q1009 ///

Zeit: 13:06 (11:06 UTC)


TAF: fehlend

Wetterbeobachtungen und Prognosen von mehr als 4000 Flughäfen (METAR und TAF Bericht).

Die verfügbaren Stationen werden durch gelbe und rote Markierungen auf der Karte dargestellt.

Führen Sie die Maus auf sie, um den Namen der Station zu sehen.

Darauf klicken, um die Beobachtung von Wetterbeobachtungen und Prognosen zu sehen.

Um die Karte zu ändern : klicken Sie auf den grünen Tasten mit einem schwarzen Kreuz Zum Vergrößern, auf den grünen Button mit einem Gedankenstrich zu verkleinern, oder auf die grünen Pfeile für benachbarte Karten.


METAR-TAF: